Regional Weather Roundup
Issued by NWS Little Rock, AR

Home | Current Version | Previous Version | Text Only | Print | Product List | Glossary Off
Versions: 1 2 3 4 5 6 7 8 9 10 11 12 13 14 15 16 17 18 19 20 21 22 23 24 25 26 27 28 29 30 31 32 33 34 35 36 37 38 39 40 41 42 43 44 45 46 47 48 49 50

000
ASUS44 KLZK 022305
RWRLZK

WEATHER ROUNDUP FOR ARKANSAS
NATIONAL WEATHER SERVICE LITTLE ROCK AR
600 PM CDT SAT MAY 02 2015

NOTE: "FAIR" INDICATES FEW OR NO CLOUDS BELOW 12,000 FEET WITH NO
SIGNIFICANT WEATHER AND/OR OBSTRUCTIONS TO VISIBILITY.

ARZ001-003-010-029-030000-
NORTHWEST ARKANSAS

CITY           SKY/WX    TMP DP  RH WIND       PRES   REMARKS
FAYETTEVILLE   SUNNY     74  54  49 MISG      30.00F
FORT SMITH     MOSUNNY   79  48  33 S6        29.97F
HARRISON       MOSUNNY   75  47  36 S9        30.00S
BENTONVILLE    SUNNY     75  48  38 SW9       30.01S
ROGERS         MOSUNNY   75  51  43 SW8       30.00F
SILOAM SPGS    SUNNY     75  52  43 SW12      30.01S
HIGHFILL       SUNNY     75  49  39 S12       29.99S
SPRINGDALE     SUNNY     75  50  41 S8G17     30.01F
$$

ARZ004-005-016-030000-
NORTH CENTRAL ARKANSAS

CITY           SKY/WX    TMP DP  RH WIND       PRES   REMARKS
BATESVILLE     SUNNY     77  43  29 S5        30.02S
FLIPPIN        SUNNY     77  45  31 SE5       29.98S
MTN HOME       SUNNY     77  42  28 VRB5      29.99F
$$

ARZ040-041-030000-
WEST CENTRAL ARKANSAS

CITY           SKY/WX    TMP DP  RH WIND       PRES   REMARKS
MENA           MOSUNNY   79  52  38 SE3       30.02S
MOUNT IDA      MOSUNNY   77  49  37 VRB3      30.00F
$$

ARZ009-017-025-026-028-030000-
NORTHEAST ARKANSAS

CITY           SKY/WX    TMP DP  RH WIND       PRES   REMARKS
CORNING          N/A     77  39  25 SW8       30.03S
JONESBORO      SUNNY     73  43  33 S8        30.03S
NEWPORT        SUNNY     78  39  24 SW3       30.04S
WALNUT RIDGE   SUNNY     75  39  27 SW8       30.02S
BLYTHEVILLE    SUNNY     76  44  32 S6        30.03S
$$

ARZ022-023-033-042-044-030000-
CENTRAL ARKANSAS

CITY           SKY/WX    TMP DP  RH WIND       PRES   REMARKS
LITTLE ROCK    PTSUNNY   77  44  30 S9        30.02S
N LITTLE ROCK  PTSUNNY   77  47  35 E7        30.02
JACKSONVILLE   SUNNY     78  45  31 E5        30.02S
SEARCY         SUNNY     77  46  33 S9        30.04S
HOT SPRINGS    MOSUNNY   77  46  33 S5        30.02S
RUSSELLVILLE   SUNNY     78  47  33 CALM      30.00F
CLINTON        FAIR      75  48  38 SE3       30.02F
$$

ARZ036-030000-
EAST ARKANSAS

CITY           SKY/WX    TMP DP  RH WIND       PRES   REMARKS
WEST MEMPHIS   SUNNY     75  43  31 VRB5      30.02F
$$

ARZ050-053-066-070-073-030000-
SOUTHWEST ARKANSAS

CITY           SKY/WX    TMP DP  RH WIND       PRES   REMARKS
ARKADELPHIA    FAIR      78  51  38 CALM      30.02F
CAMDEN         MOSUNNY   79  46  31 CALM      30.01F
TEXARKANA      MOSUNNY   78  53  41 S6        30.00F
EL DORADO      MOSUNNY   79  50  36 SW6       30.02S
DE QUEEN       MOSUNNY   78  53  41 SE7       29.98F
$$

ARZ056-057-069-030000-
SOUTHEAST ARKANSAS

CITY           SKY/WX    TMP DP  RH WIND       PRES   REMARKS
PINE BLUFF     SUNNY     77  42  28 S5        30.03S
STUTTGART      SUNNY     75  43  31 SE3       30.04S
MONTICELLO     MOSUNNY   77  39  25 SW3       30.03S

$$




USA.gov is the U.S. government's official web portal to all federal, state and local government web resources and services.